CW6575 Weather Reports


Display with metric or nautical units.
time (UTC)temp
F
wind
direction
speed
MPH
gust
MPH
rain 1hr
in
rain 24hr
in
rain mn
in
humidity
%
barometer
mb
20260901190050 84 312 1.0 4.0 0.00 0.00 0.00 67 1017.1
20260901184549 83 337 1.0 8.0 0.00 0.00 0.00 70 1017.3
20260901183110 84 311 2.0 8.0 0.00 0.00 0.00 67 1017.5
20260901181547 83 262 2.0 7.0 0.00 0.00 0.00 68 1017.9
20260901180047 83 252 2.0 7.0 0.00 0.00 0.00 68 1017.9
20260901174547 83 19 3.0 7.0 0.00 0.00 0.00 68 1018.2
20260901173055 83 20 2.0 9.0 0.00 0.00 0.00 67 1018.0
20260901171552 83 339 3.0 8.0 0.00 0.00 0.00 68 1017.8
20260901170053 83 305 3.0 9.0 0.00 0.00 0.00 68 1017.6
20260901164546 83 306 2.0 5.0 0.00 0.00 0.00 69 1017.5
20260901163103 83 309 1.0 5.0 0.00 0.00 0.00 69 1017.6
20260901161548 83 288 1.0 4.0 0.00 0.00 0.00 71 1017.5
20260901160041 82 329 1.0 6.0 0.00 0.00 0.00 70 1017.5
20260901154536 81 324 2.0 7.0 0.00 0.00 0.00 72 1017.5
20260901153031 80 338 0.0 5.0 0.00 0.00 0.00 75 1017.5
20260901151529 79 37 0.0 5.0 0.00 0.00 0.00 79 1017.6
20260901150027 79 143 1.0 6.0 0.00 0.00 0.00 78 1017.8
20260901144522 77 152 0.0 3.0 0.00 0.00 0.00 86 1017.9
20260901143019 75 153 0.0 2.0 0.00 0.00 0.00 90 1018.2
20260901141515 74 152 0.0 1.0 0.00 0.00 0.00 92 1018.2
20260901140011 73 153 0.0 0.0 0.00 0.00 0.00 92 1018.3
20260901134509 72 153 0.0 1.0 0.00 0.00 0.00 93 1018.4
20260901133002 71 152 1.0 3.0 0.00 0.00 0.00 93 1018.5
20260901131559 70 142 2.0 3.0 0.00 0.00 0.00 94 1018.5
20260901130101 69 142 1.0 4.0 0.00 0.00 0.00 95 1018.5
20260901124555 68 132 1.0 2.0 0.00 0.00 0.00 95 1018.7
20260901123053 68 145 0.0 5.0 0.00 0.00 0.00 95 1018.7
20260901121556 68 152 2.0 3.0 0.00 0.00 0.00 95 1018.7
20260901114547 67 142 2.0 4.0 0.00 0.00 0.00 95 1018.3
20260901113045 67 149 3.0 4.0 0.00 0.00 0.00 95 1018.2
20260901111551 66 146 1.0 5.0 0.00 0.00 0.00 95 1018.2
20260901110046 66 171 0.0 2.0 0.00 0.00 0.00 95 1018.1
20260901104544 66 171 0.0 1.0 0.00 0.00 0.00 95 1017.9
20260901103051 66 171 1.0 3.0 0.00 0.00 0.00 95 1017.7
20260901101543 66 171 0.0 0.0 0.00 0.00 0.00 95 1017.5
20260901100042 66 171 0.0 1.0 0.00 0.00 0.00 95 1017.6
20260901094541 67 145 2.0 4.0 0.00 0.00 0.00 95 1017.5
20260901093041 66 164 1.0 3.0 0.00 0.00 0.00 95 1017.5
20260901091540 66 164 0.0 3.0 0.00 0.00 0.00 95 1017.6
20260901090040 65 191 0.0 1.0 0.00 0.00 0.00 95 1017.5
20260901084545 65 191 0.0 0.0 0.00 0.00 0.00 95 1017.5
20260901083038 65 191 0.0 0.0 0.00 0.00 0.00 95 1017.4
20260901081537 65 191 0.0 0.0 0.00 0.00 0.00 95 1017.4
20260901080049 65 191 0.0 0.0 0.00 0.00 0.00 95 1017.5
20260901074535 66 191 0.0 2.0 0.00 0.00 0.00 95 1017.5
20260901073043 65 191 0.0 0.0 0.00 0.00 0.00 95 1017.7
20260901071533 65 191 0.0 0.0 0.00 0.00 0.00 94 1017.7
20260901070033 65 191 0.0 1.0 0.00 0.00 0.00 94 1017.8
20260901064532 65 191 0.0 3.0 0.00 0.00 0.00 95 1017.7
20260901063032 65 154 0.0 1.0 0.00 0.00 0.00 94 1017.7
20260901061529 65 154 0.0 2.0 0.00 0.00 0.00 94 1017.7
20260901060038 65 154 0.0 2.0 0.00 0.00 0.00 94 1017.8
20260901054528 66 154 1.0 5.0 0.00 0.00 0.00 94 1018.0
20260901053028 65 159 2.0 5.0 0.00 0.00 0.00 94 1018.0
20260901051526 66 155 2.0 3.0 0.00 0.00 0.00 94 1018.0
20260901050023 66 148 0.0 2.0 0.00 0.00 0.00 94 1018.0
20260901044523 66 148 0.0 3.0 0.00 0.00 0.00 93 1017.9
20260901043020 66 153 1.0 4.0 0.00 0.00 0.00 93 1018.0
20260901041519 67 157 2.0 5.0 0.00 0.00 0.00 93 1018.1
20260901040015 67 146 2.0 4.0 0.00 0.00 0.00 93 1018.3
20260901034514 67 133 2.0 8.0 0.00 0.00 0.00 93 1018.4
20260901033015 67 159 1.0 3.0 0.00 0.00 0.00 93 1018.6
20260901031513 67 159 0.0 3.0 0.00 0.00 0.00 93 1018.5
20260901030013 67 160 0.0 2.0 0.00 0.00 0.00 93 1018.6
20260901024513 68 160 0.0 3.0 0.00 0.00 0.00 93 1018.6
20260901023012 68 153 2.0 4.0 0.00 0.00 0.00 93 1018.5
20260901021521 68 171 0.0 2.0 0.00 0.00 0.00 92 1018.5
20260901020012 69 171 1.0 3.0 0.00 0.00 0.00 92 1018.4
20260901014511 69 171 3.0 5.0 0.00 0.00 0.00 92 1018.4
20260901013010 69 144 3.0 6.0 0.00 0.00 0.00 93 1018.3
20260901011509 69 159 1.0 5.0 0.00 0.00 0.00 93 1018.2
20260901010009 70 148 1.0 3.0 0.00 0.00 0.00 93 1017.8
20260901004508 70 158 1.0 3.0 0.00 0.00 0.00 92 1017.6
20260901003015 71 153 0.0 2.0 0.00 0.00 0.00 92 1017.2
20260901001507 71 159 2.0 4.0 0.00 0.00 0.00 92 1017.2
20260901000006 72 149 0.0 2.0 0.00 0.00 0.00 91 1017.2
20260831234506 72 152 3.0 4.0 0.00 0.00 0.00 91 1017.2
20260831233004 73 159 2.0 4.0 0.00 0.00 0.00 91 1017.4
20260831231507 73 300 0.0 0.0 0.00 0.00 0.00 89 1017.6
20260831230007 75 300 0.0 0.0 0.00 0.00 0.00 86 1017.6
20260831224502 75 288 0.0 1.0 0.00 0.00 0.00 88 1017.7
20260831223002 75 288 0.0 1.0 0.00 0.00 0.00 87 1017.5
20260831221501 76 288 0.0 0.0 0.00 0.00 0.00 85 1017.8
20260831220002 78 288 0.0 0.0 0.00 0.00 0.00 81 1017.6
20260831214610 80 288 0.0 0.0 0.00 0.00 0.00 76 1017.5
20260831213101 82 288 0.0 3.0 0.00 0.00 0.00 64 1017.7
20260831211557 82 308 0.0 2.0 0.00 0.00 0.00 65 1017.8
20260831210056 82 139 0.0 4.0 0.00 0.00 0.00 63 1017.8
20260831204603 82 315 1.0 4.0 0.00 0.11 0.00 64 1017.8
20260831203058 81 336 1.0 3.0 0.00 0.11 0.00 67 1017.9
20260831201553 82 355 1.0 5.0 0.00 0.11 0.00 65 1018.1
20260831200104 83 128 1.0 7.0 0.00 0.11 0.00 62 1018.2
20260831194621 83 322 1.0 5.0 0.00 0.11 0.00 68 1018.3
20260831193046 82 355 1.0 4.0 0.00 0.11 0.00 68 1018.4
20260831191545 81 296 2.0 5.0 0.00 0.11 0.00 68 1018.6